[Iaude] MPEC B68: 2024 BQ1 [a=1.43,e=0.34,i=1.3,H=30.0]
    mpec at marsden.cfa.harvard.edu 
    mpec at marsden.cfa.harvard.edu
       
    Sat Jan 20 09:41:17 EST 2024
    
    
  
M.P.E.C. 2024-B68                              Issued 2024 January 20, 14:39 UT
     The Minor Planet Electronic Circulars contain information on unusual
         minor planets, routine data on comets and natural satellites,
         and occasional editorial announcements.  They are published
    on behalf of Division F of the International Astronomical Union by the
          Minor Planet Center, Smithsonian Astrophysical Observatory,
                          Cambridge, MA 02138, U.S.A.
			  
             Prepared using the Tamkin Foundation Computer Network
                              MPC at CFA.HARVARD.EDU
            URL https://www.minorplanetcenter.net/    ISSN 1523-6714
                                    2024 BQ1                                    
Observations:
     K24B01Q* C2024 01 18.32537406 28 36.512+41 54 57.78         20.68GVEB068V00
     K24B01Q  C2024 01 18.33149506 28 44.814+41 56 35.38         20.72GVEB068V00
     K24B01Q  C2024 01 18.33760906 28 53.206+41 58 12.22         21.29GVEB068V00
     K24B01Q KC2024 01 18.45435 06 32 01.04 +42 28 25.8          20.6 RVEB068291
     K24B01Q KC2024 01 18.45619 06 32 04.42 +42 28 54.1          20.6 RVEB068291
     K24B01Q KC2024 01 18.78531006 48 36.442+44 26 18.67         19.0 GVEB068J95
     K24B01Q KC2024 01 18.80275606 49 27.895+44 34 36.41         19.8 GVEB068J95
     K24B01Q KC2024 01 18.82206506 50 25.418+44 43 51.67         20.3 GVEB068J95
     K24B01Q KB2024 01 18.85853306 52 21.31 +45 04 10.9          20.1 GXEB068I93
     K24B01Q KB2024 01 18.86373806 52 37.04 +45 06 45.0          20.0 GXEB068I93
     K24B01Q KB2024 01 18.86883006 52 52.46 +45 09 15.9          19.6 GXEB068I93
     K24B01Q KC2024 01 19.74086108 49 48.533+53 46 39.61         18.7 GVEB068J95
     K24B01Q KC2024 01 19.74660108 51 27.007+53 50 41.21         19.2 GVEB068J95
     K24B01Q KC2024 01 19.75147908 52 51.490+53 54 03.78         18.5 GVEB068J95
     K24B01Q NC2024 01 20.03753110 38 12.37 +55 12 15.6          18.5 GVEB068L01
     K24B01Q bC2024 01 20.03857910 38 40.27 +55 11 40.3          18.7 GVEB068L01
     K24B01Q bC2024 01 20.03910310 38 54.16 +55 11 22.6          18.7 GVEB068L01
     K24B01Q bC2024 01 20.04015210 39 22.32 +55 10 47.2          18.8 GVEB068L01
     K24B01Q 1C2024 01 20.46731813 51 15.174+37 35 55.86         19.58GVEB068703
     K24B01Q 1C2024 01 20.46763313 51 21.089+37 34 41.52         18.93GVEB068703
     K24B01Q 1C2024 01 20.46779013 51 24.174+37 34 03.65         18.63GVEB068703
Observer details:
291 LPL/Spacewatch II.  Observer C. Lejoly.  1.8-m f/2.7 reflector + CCD.
703 Catalina Sky Survey.  Observers V. F. Carvajal, J. K. Hogan.  Measurers T.
    Beuden, V. F. Carvajal, D. Fay, J. B. Fazekas, D. C. Fuls, A. R. Gibbs, A.
    D. Grauer, H. Groeller, J. K. Hogan, R. A. Kowalski, S. M. Larson, G. J.
    Leonard, D. Rankin, R. L. Seaman, F. C. Shelly, K. W. Wierzchos.  0.68-m
    Schmidt + 10K CCD.
I93 St Pardon de Conques.  Observer F. Losse.  0.40-m f/3.7 reflector + CMO.
J95 Great Shefford.  Observer P. Birtwhistle.  0.41-m f/6.3 Schmidt-Cassegrain
    + CCD.
L01 Visnjan Observatory, Tican.  Observer K. Korlevic.  1.0-m f/2.9 reflector
    + CCD.
V00 Kitt Peak-Bok.  Observer R. A. Mastaler.  Measurers M. J. Brucker, C. E.
    Woodward, D. Fay, J. B. Fazekas, D. C. Fuls, A. R. Gibbs, H. Groeller, J.
    K. Hogan, R. A. Kowalski, S. M. Larson, C. Lejoly, G. J. Leonard, R. A.
    Mastaler, R. S. McMillan, D. Rankin, R. L. Seaman, A. Serrano, F. C.
    Shelly, K. W. Wierzchos.  2.25-m reflector + 4x4K mosaic CCD.
Orbital elements:
2024 BQ1                                                 Earth MOID = 0.0017 AU
Epoch 2023 Sept. 13.0 TT = JDT 2460200.5                Veres                   
M 269.70327              (2000.0)            P               Q                  
n   0.57484769     Peri.  209.03417     -0.89125893     -0.45312433             
a   1.4325205      Node   304.01013     +0.42022500     -0.81000551             
e   0.3414382      Incl.    1.26683     +0.17049480     -0.37224913             
P   1.71           H   30.07          G   0.15           U   6                  
Residuals in seconds of arc
240118 V00  0.1+  0.0     240118 J95  0.7+  0.3+    240120 L01  0.3+  0.2+
240118 V00  0.0   0.1+    240118 I93  0.3-  0.0     240120 L01  0.1-  0.1-
240118 V00  0.2-  0.2-    240118 I93  0.3+  0.1-    240120 L01  0.9-  0.2-
240118 291 (3.8+  0.5+)   240118 I93  0.7+  0.2-    240120 L01  0.3+  0.2+
240118 291  3.0+  0.3+    240119 J95  0.0   0.5+    240120 703  0.4+  0.2+
240118 J95  0.1+  0.2+    240119 J95  0.2+  0.8+    240120 703  0.8-  0.2+
240118 J95  0.1+  0.5+    240119 J95  0.2+  0.1+    240120 703  0.2+  0.6-
Ephemeris:
2024 BQ1                 a,e,i = 1.43, 0.34, 1                   q = 0.9434
Date    TT    R. A. (2000) Decl.     Delta      r    Elong.  Phase     V
2023 12 21    05 44 28.1 +30 08 56   0.1216  1.1046   173.0     6.2    26.2
...
2024 01 05    05 42 02.1 +31 35 17   0.05845 1.0386   160.6    18.3    24.9
...
2024 01 13    05 47 09.8 +33 37 16   0.02789 1.0086   153.4    25.9    23.5
...
2024 01 19    07 00 17.4 +46 13 26   0.0058490.9890   151.5    28.3    20.1
2024 01 20    10 19 49.0 +55 20 52   0.0028250.9860   136.8    43.1    19.0
2024 01 21    15 39 09.9 +06 20 53   0.0031380.9830    71.4   108.4    21.6
...
2024 01 27    17 24 20.2 -28 15 11   0.02465 0.9671    44.3   134.7    28.2
...
2024 02 04    17 37 13.5 -30 29 38   0.05464 0.9512    49.6   127.9    29.2
...
2024 02 19    17 54 52.5 -31 11 08   0.1111  0.9393    60.9   113.2    29.5
M. P. C. Staff               (C) Copyright 2024 MPC           M.P.E.C. 2024-B68
    
    
More information about the Iaude
mailing list